Location: Gro�bocka
(50.8204°N, 11.9702°E)
Time: 01:11:31
(UTC+00:00)

Cosmos 44 Rocket - Pass Details

Date: 29 October 2020
Orbit: 642 x 748 km, 65.1° (Epoch: 23 November)

Event Time Altitude Azimuth Distance (km) Brightness Sun altitude
Rises 18:13:27 0° 209° (SSW) 2,992 6.9 -22.9°
Reaches altitude 10° 18:15:44 10° 206° (SSW) 2,097 6.0 -23.2°
Enters shadow 18:19:57 60° 160° (SSE) 785 3.3 -23.9°
